Regional Weather Roundup
Issued by NWS Wilmington, NC

Home | Current Version | Previous Version | Text Only | Print | Product List | Glossary On
Versions: 1 2 3 4 5 6 7 8 9 10 11 12 13 14 15 16 17 18 19 20 21 22 23 24 25 26 27 28 29 30 31 32 33 34 35 36 37 38 39 40 41 42 43 44 45 46 47 48 49 50
000
ASUS42 KILM 031713
RWRILM
RWRILM
REGIONAL HOURLY WEATHER ROUNDUP
NATIONAL WEATHER SERVICE WILMINGTON NC
100 PM EDT FRI JUL 03 2015

NOTE: "FAIR" INDICATES FEW OR NO CLOUDS BELOW 12,000 FEET WITH NO
SIGNIFICANT WEATHER AND/OR OBSTRUCTIONS TO VISIBILITY.

...............WFO WILMINGTON COUNTY WARNING AREA...............

......COASTAL NC AND SC COUNTIES......

CITY           SKY/WX    TMP DP  RH WIND       PRES   REMARKS
WILMINGTON     CLOUDY    81  72  74 W7        29.99F
N MYRTLE BEACH PTSUNNY   85  72  65 SW10      29.99S HX  91
MYRTLE BEACH   MOSUNNY   84  70  61 SW8       30.01F

......INLAND NC AND SC COUNTIES.......

CITY           SKY/WX    TMP DP  RH WIND       PRES   REMARKS
LUMBERTON      CLOUDY    78  72  81 S9        29.96F
ELIZABETHTOWN  CLOUDY    76  73  91 CALM      29.99F
WHITEVILLE     CLOUDY    78  73  83 SW3       29.98F
FLORENCE       LGT RAIN  77  74  90 SW7       29.97F FOG
DARLINGTON     CLOUDY    79  72  78 S14       29.96F

....................REST OF NORTH CAROLINA......................

.........EASTERN NC.........

CITY           SKY/WX    TMP DP  RH WIND       PRES   REMARKS
CAPE HATTERAS  MOSUNNY   80  70  71 SW10      30.00S
JACKSONVILLE   CLOUDY    84  70  61 W10       29.98F
MOREHEAD CITY  CLOUDY    81  73  76 SW13      29.99S
KENANSVILLE    CLOUDY    78  69  75 S3        29.99F
NEW BERN       PTSUNNY   84  71  65 SW10      29.99S
ELIZABETH CITY PTSUNNY   79  69  71 E6        29.98F

.........CENTRAL NC.........

CITY           SKY/WX    TMP DP  RH WIND       PRES   REMARKS
RALEIGH DURHAM PTSUNNY   78  71  79 SW8       29.97F
ROCKY MOUNT    MOSUNNY   83  70  64 SE6       29.96F
ROANOKE RAPIDS NOT AVBL
FAYETTEVILLE   CLOUDY    78  71  79 S10       29.96F
HOFFMAN        HVY RAIN  73  72  94 SE7       29.99F

.........WESTERN NC.........

CITY           SKY/WX    TMP DP  RH WIND       PRES   REMARKS
CHARLOTTE      CLOUDY    81  69  67 SW8       29.94F
GREENSBORO     LGT RAIN  72  70  93 S8        29.96F FOG
HICKORY        NOT AVBL
BOONE          NOT AVBL
ASHEVILLE      NOT AVBL

.....................REST OF SOUTH CAROLINA.....................

.........EASTERN SC.........

CITY           SKY/WX    TMP DP  RH WIND       PRES   REMARKS
CHARLESTON     MOSUNNY   86  73  65 SW13      30.00F HX  93
BEAUFORT MCAS  SUNNY     88  74  63 W15       30.01F HX  96
HILTON HEAD    MOSUNNY   88  72  58 SW10      30.03F HX  94

.........CENTRAL SC.........

CITY           SKY/WX    TMP DP  RH WIND       PRES   REMARKS
COLUMBIA       CLOUDY    79  68  69 SW8       29.96S
ORANGEBURG     LGT RAIN  79  73  82 SW16      29.99S
SUMTER SHAW    PTSUNNY   83  72  70 SW10      29.95F

.........WESTERN SC.........

CITY           SKY/WX    TMP DP  RH WIND       PRES   REMARKS
GREENVILLE     NOT AVBL
ROCK HILL      CLOUDY    78  71  79 SW10      29.95F
ANDERSON       CLOUDY    76  71  85 SW12      29.98S
CLEMSON        NOT AVBL
GREENWOOD      CLOUDY    74  70  87 SW14      30.01R


...................COASTAL AND OFFSHORE REPORTS..................

................LOCAL PIERS AND NC RESERVE................


STATION/POSITION TIME  SKY/WX   TEMP    WIND        PRES    VSBY
                                AIR SEA DIR/SP/G
                 (UTC)          (F)     (DEG/KT/KT) (MB)    (MI)
JOHNY MRCER PIER 1600            79 80  230/ 10/ 13 1015.3S
NC RESRV MASNBRO NOT AVBL
OCEAN CREST PIER NOT AVBL
SPRINGMAID  PIER 1600            80 82  220/  7/  9 1015.5F


................COASTAL AND OFFSHORE BUOYS................


STATION/POSITION TIME  SKY/WX   TEMP    WIND        PRES    VSBY
                                AIR SEA DIR/SP/G
                 (UTC)          (F)     (DEG/KT/KT) (MB)    (MI)
DIMNDSHOAL 41025 1650            77 82  260/ 14/ 16 1015.7S
WVE H/P(F/S)=  5/ 8 WND WVE H/P(F/S)=  3/ 5 SWL H/P/D(F/S/D)=  3/190/ 8

CAPE LOOKOUT     1700            79     210/ 11/ 14 1015.1F
ONSLOW BAY 41036 NOT AVBL
5 WRITEBCH 41038 1608            78 79  200/  8/ 12 1015.9F
MASONBORO  41110 1619               80                N/A
WVE H/P(F/S)=  3/ 7 WND WVE H/P(F/S)=  3/ 7

WILM HARBR 41108 1611               81                N/A
WVE H/P(F/S)=  5/ 6 WND WVE H/P(F/S)=  5/ 6

27WRITEBCH 41037 1600               80  240/ 14/ 16   N/A
FRYING PAN 41013 1650            80 79  230/ 21/ 25 1016.3F
WVE H/P(F/S)=  6/ 6 WND WVE H/P(F/S)=  5/ 6

SUNST NRSH 41024 1608            79     240/ 10/ 14 1015.7F
CAPRS NRSH 41029 1608            80     250/ 16/ 19 1017.1R
EDISTO     41004 1650            81 81  230/ 17/ 19 1016.5S
WVE H/P(F/S)=  4/ 5 WND WVE H/P(F/S)=  3/ 5 SWL H/P/D(F/S/D)=  2/ 9



..........OFFSHORE BUOYS BEYOND 100 NM OFFSHORE...........
.....IN A TRIANGLE---HAT TO BERMUDA TO BAHAMAS TO HAT.....


STATION/POSITION TIME  SKY/WX   TEMP    WIND        PRES    VSBY
                                AIR SEA DIR/SP/G
                 (UTC)          (F)     (DEG/KT/KT) (MB)    (MI)
150E HAT   41001 NOT AVBL
W BERMUDA  41048 1650            81 81  210/ 14/ 16 1021.6F
WVE H/P(F/S)=  5/ 7 WND WVE H/P(F/S)=  3/ 6 SWL H/P/D(F/S/D)=  3/260/ 7

ATLANTIC S 41049 1650            82 84  160/  6/  6 1024.4S
WVE H/P(F/S)=  4/ 9 WND WVE H/P(F/S)=  2/ 3 SWL H/P/D(F/S/D)=  3/130/ 9

E BAHAMAS  41046 1650            82 83  120/ 14/ 17 1021.4R
WVE H/P(F/S)=  5/ 9 WND WVE H/P(F/S)=  3/ 6 SWL H/P/D(F/S/D)=  3/100/ 9

NE BAHAMAS 41047 1650            83 84  160/ 10/ 12 1021.4R
WVE H/P(F/S)=  4/ 9 WND WVE H/P(F/S)=  2/ 4 SWL H/P/D(F/S/D)=  3/120/ 9

120E CANVRL41010 1620            81 84  110/ 10/ 12 1020.6R

END


USA.gov is the U.S. government's official web portal to all federal, state and local government web resources and services.